EW6252 Weather Reports


time (UTC)temp
F
wind
direction
speed
knots
gust
knots
rain 1hr
in
rain 24hr
in
rain mn
in
humidity
%
barometer
mb
20260506204711 87 0.0 0.0 0.00 0.00 0.00 5 1006.8
20260506204141 87 0.0 0.0 0.00 0.00 0.00 12 1006.8
20260506203626 87 0.0 0.0 0.00 0.00 0.00 13 1006.8
20260506203124 87 0.0 0.0 0.00 0.00 0.00 9 1006.8
20260506202624 87 0.0 0.0 0.00 0.00 0.00 4 1006.9
20260506202344 86 0.0 0.0 0.00 0.00 0.00 100 1006.9
20260506201556 86 0.0 0.0 0.00 0.00 0.00 100 1006.9
20260506201256 86 0.0 0.0 0.00 0.00 0.00 100 1007.0
20260506200521 86 0.0 0.0 0.00 0.00 0.00 100 1007.0
20260506195958 86 0.0 0.0 0.00 0.00 0.00 100 1007.0
20260506195441 86 0.0 0.0 0.00 0.00 0.00 100 1007.2
20260506194935 86 0.0 0.0 0.00 0.00 0.00 100 1007.2
20260506194522 86 0.0 0.0 0.00 0.00 0.00 100 1007.2
20260506193923 86 0.0 0.0 0.00 0.00 0.00 100 1007.3
20260506193405 86 0.0 0.0 0.00 0.00 0.00 100 1007.3
20260506192842 85 0.0 0.0 0.00 0.00 0.00 100 1007.3
20260506192341 85 0.0 0.0 0.00 0.00 0.00 100 1007.5
20260506191834 85 0.0 0.0 0.00 0.00 0.00 100 1007.5
20260506191325 85 0.0 0.0 0.00 0.00 0.00 100 1007.5
20260506190823 85 0.0 0.0 0.00 0.00 0.00 100 1007.5
20260506190321 85 0.0 0.0 0.00 0.00 0.00 100 1007.5
20260506185813 85 0.0 0.0 0.00 0.00 0.00 100 1007.6
20260506185222 85 0.0 0.0 0.00 0.00 0.00 100 1007.6
20260506184721 86 0.0 0.0 0.00 0.00 0.00 100 1007.6
20260506184427 86 0.0 0.0 0.00 0.00 0.00 100 1008.0
20260506183912 85 0.0 0.0 0.00 0.00 0.00 100 1008.0
20260506183351 85 0.0 0.0 0.00 0.00 0.00 100 1008.0
20260506182554 85 0.0 0.0 0.00 0.00 0.00 100 1008.1
20260506182045 85 0.0 0.0 0.00 0.00 0.00 100 1008.1
20260506181527 85 0.0 0.0 0.00 0.00 0.00 100 1008.1
20260506181025 84 0.0 0.0 0.00 0.00 0.00 100 1008.5
20260506180510 84 0.0 0.0 0.00 0.00 0.00 100 1008.5
20260506175957 85 0.0 0.0 0.00 0.00 0.00 100 1008.5
20260506175438 85 0.0 0.0 0.00 0.00 0.00 100 1008.6
20260506174929 85 0.0 0.0 0.00 0.00 0.00 100 1008.6
20260506174425 84 0.0 0.0 0.00 0.00 0.00 100 1008.6
20260506174147 84 0.0 0.0 0.00 0.00 0.00 100 1008.8
20260506173416 84 0.0 0.0 0.00 0.00 0.00 100 1008.8
20260506172903 84 0.0 0.0 0.00 0.00 0.00 100 1008.8
20260506172344 84 0.0 0.0 0.00 0.00 0.00 100 1008.7
20260506171820 84 0.0 0.0 0.00 0.00 0.00 100 1008.7
20260506171305 84 0.0 0.0 0.00 0.00 0.00 100 1008.8
20260506170756 83 0.0 0.0 0.00 0.00 0.00 100 1008.8
20260506170248 83 0.0 0.0 0.00 0.00 0.00 100 1008.8
20260506165748 82 0.0 0.0 0.00 0.00 0.00 100 1008.9
20260506165245 82 0.0 0.0 0.00 0.00 0.00 100 1008.9
20260506164719 82 0.0 0.0 0.00 0.00 0.00 100 1008.9
20260506164215 81 0.0 0.0 0.00 0.00 0.00 100 1008.6
20260506163710 81 0.0 0.0 0.00 0.00 0.00 100 1008.6
20260506163150 81 0.0 0.0 0.00 0.00 0.00 100 1008.6
20260506162649 81 0.0 0.0 0.00 0.00 0.00 100 1008.6
20260506162142 81 0.0 0.0 0.00 0.00 0.00 100 1008.6
20260506161624 80 0.0 0.0 0.00 0.00 0.00 100 1008.6
20260506161123 80 0.0 0.0 0.00 0.00 0.00 100 1008.6
20260506160622 80 0.0 0.0 0.00 0.00 0.00 100 1008.6
20260506160121 80 0.0 0.0 0.00 0.00 0.00 100 1008.6
20260506155619 80 0.0 0.0 0.00 0.00 0.00 100 1008.6
20260506155112 80 0.0 0.0 0.00 0.00 0.00 100 1008.6
20260506154608 80 0.0 0.0 0.00 0.00 0.00 100 1008.6
20260506154105 80 0.0 0.0 0.00 0.00 0.00 100 1008.4
20260506153538 80 0.0 0.0 0.00 0.00 0.00 100 1008.4
20260506153024 80 0.0 0.0 0.00 0.00 0.00 100 1008.4
20260506152522 80 0.0 0.0 0.00 0.00 0.00 100 1008.1
20260506152020 80 0.0 0.0 0.00 0.00 0.00 100 1008.1
20260506151520 79 0.0 0.0 0.00 0.00 0.00 100 1008.1
20260506151019 79 0.0 0.0 0.00 0.00 0.00 100 1008.0
20260506150444 79 0.0 0.0 0.00 0.00 0.00 100 1008.0
20260506145922 79 0.0 0.0 0.00 0.00 0.00 100 1008.0
20260506145420 79 0.0 0.0 0.00 0.00 0.00 100 1007.6
20260506144907 79 0.0 0.0 0.00 0.00 0.00 100 1007.6
20260506144327 79 0.0 0.0 0.00 0.00 0.00 100 1007.6
20260506144055 79 0.0 0.0 0.00 0.00 0.00 100 1007.5
20260506143318 79 0.0 0.0 0.00 0.00 0.00 100 1007.5
20260506143038 79 0.0 0.0 0.00 0.00 0.00 100 1007.5
20260506142257 78 0.0 0.0 0.00 0.00 0.00 100 1007.5
20260506141729 78 0.0 0.0 0.00 0.00 0.00 100 1007.5
20260506141228 78 0.0 0.0 0.00 0.00 0.00 100 1007.6
20260506140724 78 0.0 0.0 0.00 0.00 0.00 100 1007.6
20260506140225 78 0.0 0.0 0.00 0.00 0.00 100 1007.6
20260506135713 78 0.0 0.0 0.00 0.00 0.00 100 1007.8
20260506135139 78 0.0 0.0 0.00 0.00 0.00 100 1007.8
20260506134626 78 0.0 0.0 0.00 0.00 0.00 100 1007.8
20260506134125 78 0.0 0.0 0.00 0.00 0.00 100 1007.8
20260506133622 78 0.0 0.0 0.00 0.00 0.00 100 1007.8
20260506133123 77 0.0 0.0 0.00 0.00 0.00 100 1007.8
20260506132613 77 0.0 0.0 0.00 0.00 0.00 100 1007.6
20260506132053 77 0.0 0.0 0.00 0.00 0.00 100 1007.6
20260506131530 77 0.0 0.0 0.00 0.00 0.00 100 1007.6
20260506130520 77 0.0 0.0 0.00 0.00 0.00 100 1007.7
20260506130020 77 0.0 0.0 0.00 0.00 0.00 100 1007.7
20260506125520 77 0.0 0.0 0.00 0.00 0.00 100 1007.7
20260506125015 77 0.0 0.0 0.00 0.00 0.00 100 1007.7
20260506124440 77 0.0 0.0 0.00 0.00 0.00 100 1007.7
20260506123932 77 0.0 0.0 0.00 0.00 0.00 100 1007.6
20260506123425 77 0.0 0.0 0.00 0.00 0.00 100 1007.6
20260506122911 77 0.0 0.0 0.00 0.00 0.00 100 1007.6
20260506122333 77 0.0 0.0 0.00 0.00 0.00 100 1007.5
20260506121824 77 0.0 0.0 0.00 0.00 0.00 100 1007.5
20260506121554 77 0.0 0.0 0.00 0.00 0.00 100 1007.5
20260506120821 76 0.0 0.0 0.00 0.00 0.00 100 1007.5
20260506120315 76 0.0 0.0 0.00 0.00 0.00 100 1007.5
20260506115807 76 0.0 0.0 0.00 0.00 0.00 100 1007.1
20260506115513 76 0.0 0.0 0.00 0.00 0.00 100 1007.1
20260506114730 77 0.0 0.0 0.00 0.00 0.00 100 1007.1
20260506114230 77 0.0 0.0 0.00 0.00 0.00 100 1007.1
20260506113722 77 0.0 0.0 0.00 0.00 0.00 100 1007.1
20260506113219 77 0.0 0.0 0.00 0.00 0.00 100 1007.1
20260506112720 77 0.0 0.0 0.00 0.00 0.00 100 1007.0
20260506112208 77 0.0 0.0 0.00 0.00 0.00 100 1007.0
20260506111653 77 0.0 0.0 0.00 0.00 0.00 100 1007.0
20260506111129 77 0.0 0.0 0.00 0.00 0.00 100 1006.8
20260506110623 77 0.0 0.0 0.00 0.00 0.00 100 1006.8
20260506110124 77 0.0 0.0 0.00 0.00 0.00 100 1006.8
20260506105624 77 0.0 0.0 0.00 0.00 0.00 100 1006.7
20260506105124 77 0.0 0.0 0.00 0.00 0.00 100 1006.7
20260506104619 77 0.0 0.0 0.00 0.00 0.00 100 1006.7
20260506104114 77 0.0 0.0 0.00 0.00 0.00 100 1007.0
20260506103843 77 0.0 0.0 0.00 0.00 0.00 100 1007.0
20260506103046 77 0.0 0.0 0.00 0.00 0.00 100 1007.0
20260506102538 77 0.0 0.0 0.00 0.00 0.00 100 1006.6
20260506102018 77 0.0 0.0 0.00 0.00 0.00 100 1006.6
20260506101516 77 0.0 0.0 0.00 0.00 0.00 100 1006.6
20260506100946 77 0.0 0.0 0.00 0.00 0.00 100 1006.6
20260506100438 77 0.0 0.0 0.00 0.00 0.00 100 1006.6
20260506100157 77 0.0 0.0 0.00 0.00 0.00 100 1006.6
20260506095425 77 0.0 0.0 0.00 0.00 0.00 100 1006.5
20260506094921 77 0.0 0.0 0.00 0.00 0.00 100 1006.5
20260506094416 77 0.0 0.0 0.00 0.00 0.00 100 1006.5
20260506093917 77 0.0 0.0 0.00 0.00 0.00 100 1006.5
20260506093356 77 0.0 0.0 0.00 0.00 0.00 100 1006.5
20260506092835 77 0.0 0.0 0.00 0.00 0.00 100 1006.5
20260506092331 77 0.0 0.0 0.00 0.00 0.00 100 1006.6
20260506091824 77 0.0 0.0 0.00 0.00 0.00 100 1006.6
20260506091325 77 0.0 0.0 0.00 0.00 0.00 100 1006.7
20260506090824 77 0.0 0.0 0.00 0.00 0.00 100 1006.7
20260506090315 77 0.0 0.0 0.00 0.00 0.00 100 1006.7
20260506085722 77 0.0 0.0 0.00 0.00 0.00 100 1006.7
20260506085222 77 0.0 0.0 0.00 0.00 0.00 100 1006.7
20260506084722 77 0.0 0.0 0.00 0.00 0.00 100 1006.7
20260506084211 77 0.0 0.0 0.00 0.00 0.00 100 1006.7
20260506083653 77 0.0 0.0 0.00 0.00 0.00 100 1006.7
20260506083146 78 0.0 0.0 0.00 0.00 0.00 100 1006.7
20260506082900 78 0.0 0.0 0.00 0.00 0.00 100 1006.8
20260506082123 78 0.0 0.0 0.00 0.00 0.00 100 1006.8
20260506081619 78 0.0 0.0 0.00 0.00 0.00 100 1006.8
20260506081043 78 0.0 0.0 0.00 0.00 0.00 100 1006.9
20260506080538 78 0.0 0.0 0.00 0.00 0.00 100 1006.9
20260506080255 78 0.0 0.0 0.00 0.00 0.00 100 1006.9
20260506073434 78 0.0 0.0 0.00 0.00 0.00 100 1007.1
20260506072923 78 0.0 0.0 0.00 0.00 0.00 100 1007.1
20260506072422 78 0.0 0.0 0.00 0.00 0.00 100 1007.5
20260506072141 78 0.0 0.0 0.00 0.00 0.00 100 1007.5
20260506071635 78 0.0 0.0 0.00 0.00 0.00 100 1007.5
20260506070842 78 0.0 0.0 0.00 0.00 0.00 100 1007.5
20260506070556 78 0.0 0.0 0.00 0.00 0.00 100 1007.5
20260506062222 78 0.0 0.0 0.00 0.00 0.00 100 1007.7
20260506061721 78 0.0 0.0 0.00 0.00 0.00 100 1007.7
20260506061212 78 0.0 0.0 0.00 0.00 0.00 100 1007.6
20260506060706 78 0.0 0.0 0.00 0.00 0.00 100 1007.6
20260506060134 78 0.0 0.0 0.00 0.00 0.00 100 1007.6
20260506051017 78 0.0 0.0 0.00 0.00 0.00 100 1007.5
20260506050440 78 0.0 0.0 0.00 0.00 0.00 100 1007.5
20260506045105 78 0.0 0.0 0.00 0.00 0.00 100 1007.6
20260506044324 78 0.0 0.0 0.00 0.00 0.00 100 1007.5
20260506043807 78 0.0 0.0 0.00 0.00 0.00 100 1007.5
20260506043224 78 0.0 0.0 0.00 0.00 0.00 100 1007.5
20260506042723 78 0.0 0.0 0.00 0.00 0.00 100 1007.4
20260506042147 78 0.0 0.0 0.00 0.00 0.00 100 1007.4
20260506041628 79 0.0 0.0 0.00 0.00 0.00 100 1007.4
20260506041128 79 0.0 0.0 0.00 0.00 0.00 100 1007.3
20260506040852 79 0.0 0.0 0.00 0.00 0.00 100 1007.3
20260506040111 79 0.0 0.0 0.00 0.00 0.00 100 1007.3
20260506035529 79 0.0 0.0 0.00 0.00 0.00 100 1007.1
20260506035027 79 0.0 0.0 0.00 0.00 0.00 100 1007.1
20260506034757 79 0.0 0.0 0.00 0.00 0.00 100 1007.1
20260506034024 79 0.0 0.0 0.00 0.00 0.00 100 1007.0
20260506033526 79 0.0 0.0 0.00 0.00 0.00 100 1007.0
20260506033024 79 0.0 0.0 0.00 0.00 0.00 100 1007.0
20260506032526 79 0.0 0.0 0.00 0.00 0.00 100 1007.0
20260506032017 79 0.0 0.0 0.00 0.00 0.00 100 1007.0
20260506031504 79 0.0 0.0 0.00 0.00 0.00 100 1007.0
20260506030952 79 0.0 0.0 0.00 0.00 0.00 100 1007.0
20260506030424 79 0.0 0.0 0.00 0.00 0.00 100 1007.0
20260506025921 79 0.0 0.0 0.00 0.00 0.00 100 1007.0
20260506025401 79 0.0 0.0 0.00 0.00 0.00 100 1006.7
20260506024327 79 0.0 0.0 0.00 0.00 0.00 100 1006.7
20260506023828 79 0.0 0.0 0.00 0.00 0.00 100 1006.5
20260506023328 80 0.0 0.0 0.00 0.00 0.00 100 1006.5
20260506022824 80 0.0 0.0 0.00 0.00 0.00 100 1006.4
20260506022319 80 0.0 0.0 0.00 0.00 0.00 100 1006.4
20260506021820 80 0.0 0.0 0.00 0.00 0.00 100 1006.4
20260506021307 80 0.0 0.0 0.00 0.00 0.00 100 1006.1
20260506020756 80 0.0 0.0 0.00 0.00 0.00 100 1006.1
20260506020247 80 0.0 0.0 0.00 0.00 0.00 100 1006.1
20260506015727 80 0.0 0.0 0.00 0.00 0.00 100 1006.0
20260506015217 80 0.0 0.0 0.00 0.00 0.00 100 1006.0
20260506014707 80 0.0 0.0 0.00 0.00 0.00 100 1006.0
20260506014156 80 0.0 0.0 0.00 0.00 0.00 100 1005.7
20260506013638 80 0.0 0.0 0.00 0.00 0.00 100 1005.7
20260506013127 80 0.0 0.0 0.00 0.00 0.00 100 1005.7
20260506012623 80 0.0 0.0 0.00 0.00 0.00 100 1005.5
20260506012124 80 0.0 0.0 0.00 0.00 0.00 100 1005.5
20260506011622 80 0.0 0.0 0.00 0.00 0.00 100 1005.5
20260506011119 81 0.0 0.0 0.00 0.00 0.00 100 1005.4
20260506010618 81 0.0 0.0 0.00 0.00 0.00 100 1005.4
20260506010105 81 0.0 0.0 0.00 0.00 0.00 100 1005.4
20260506005555 81 0.0 0.0 0.00 0.00 0.00 100 1005.1
20260506005054 81 0.0 0.0 0.00 0.00 0.00 100 1005.1
20260506004258 81 0.0 0.0 0.00 0.00 0.00 100 1005.0
20260506003756 81 0.0 0.0 0.00 0.00 0.00 100 1005.0
20260506003024 81 0.0 0.0 0.00 0.00 0.00 100 1005.0
20260506002521 81 0.0 0.0 0.00 0.00 0.00 100 1005.0
20260506002012 81 0.0 0.0 0.00 0.00 0.00 100 1005.0
20260506001740 81 0.0 0.0 0.00 0.00 0.00 100 1005.0
20260506001232 81 0.0 0.0 0.00 0.00 0.00 100 1005.0
20260506000459 81 0.0 0.0 0.00 0.00 0.00 100 1005.0
20260505235957 81 0.0 0.0 0.00 0.00 0.00 100 1005.0
20260505235200 82 0.0 0.0 0.00 0.00 0.00 100 1005.0
20260505234425 82 0.0 0.0 0.00 0.00 0.00 100 1005.0
20260505233840 82 0.0 0.0 0.00 0.00 0.00 100 1004.9
20260505233328 82 0.0 0.0 0.00 0.00 0.00 100 1004.9
20260505232825 82 0.0 0.0 0.00 0.00 0.00 100 1005.0
20260505232321 82 0.0 0.0 0.00 0.00 0.00 100 1005.0
20260505231821 82 0.0 0.0 0.00 0.00 0.00 100 1005.0
20260505231318 82 0.0 0.0 0.00 0.00 0.00 100 1005.1
20260505230805 82 0.0 0.0 0.00 0.00 0.00 100 1005.1
20260505230248 82 0.0 0.0 0.00 0.00 0.00 100 1005.1
20260505225728 82 0.0 0.0 0.00 0.00 0.00 100 1005.1
20260505225208 82 0.0 0.0 0.00 0.00 0.00 100 1005.1
20260505224906 82 0.0 0.0 0.00 0.00 0.00 100 1005.1
20260505224125 82 0.0 0.0 0.00 0.00 0.00 100 1005.3
20260505223625 82 0.0 0.0 0.00 0.00 0.00 100 1005.3
20260505223355 82 0.0 0.0 0.00 0.00 0.00 100 1005.3
20260505222614 82 0.0 0.0 0.00 0.00 0.00 100 1005.4
20260505222050 82 0.0 0.0 0.00 0.00 0.00 100 1005.4
20260505221537 83 0.0 0.0 0.00 0.00 0.00 100 1005.4
20260505221033 83 0.0 0.0 0.00 0.00 0.00 100 1005.5
20260505220525 83 0.0 0.0 0.00 0.00 0.00 100 1005.5
20260505220017 83 0.0 0.0 0.00 0.00 0.00 100 1005.5
20260505215515 83 0.0 0.0 0.00 0.00 0.00 100 1005.5
20260505215014 83 0.0 0.0 0.00 0.00 0.00 100 1005.5
20260505214506 83 0.0 0.0 0.00 0.00 0.00 100 1005.5
20260505213947 83 0.0 0.0 0.00 0.00 0.00 100 1005.9
20260505213425 83 0.0 0.0 0.00 0.00 0.00 100 1005.9
20260505212925 83 0.0 0.0 0.00 0.00 0.00 100 1005.9
20260505212419 83 0.0 0.0 0.00 0.00 0.00 100 1006.0
20260505211915 83 0.0 0.0 0.00 0.00 0.00 100 1006.0
20260505211407 83 0.0 0.0 0.00 0.00 0.00 100 1006.0
20260505210903 83 0.0 0.0 0.00 0.00 0.00 100 1006.0
20260505210359 83 0.0 0.0 0.00 0.00 0.00 100 1006.0
20260505205824 83 0.0 0.0 0.00 0.00 0.00 100 1006.4
20260505205555 83 0.0 0.0 0.00 0.00 0.00 100 1006.4